User: anonymous   Login
Location: Dunedin
(45.8670°S, 170.5000°E)
Time: 07:04:17
(UTC+13:00)
Language:

Cosmos 2263 Rocket - Orbit

View from above orbital plane
View from above orbital plane
View from above satellite
View from above satellite

Ground track
Ground track

The orbit data is extracted from the following two-line orbital elements,

1 22803U 93059B   19080.92578716 -.00000177 +00000-0 -64625-4 0  9998
2 22803 070.9922 335.0127 0015500 132.1411 228.1033 14.16807028319066
Epoch (UTC): 21 March 2019 22:13:08
Eccentricity: 0.0015500
inclination: 70.9922°
perigee height: 825 km
apogee height: 847 km
right ascension of ascending node: 335.0127°
argument of perigee: 132.1411°
revolutions per day: 14.16807028
mean anomaly at epoch: 228.1033°
orbit number at epoch: 31906

The dashed part of the orbit path shows where the satellite is in the earth's shadow,  

DLR